| time (UTC) | temp C | wind direction | speed KPH | gust KPH | rain 1hr cm | rain 24hr cm | rain mn cm | humidity % | barometer mb |
| 20260505083041 | -17 | 0.0 | 0.0 | 0.00 | 0.00 | 0.00 | 1005.7 | ||
| 20260505081514 | -17 | 0.0 | 0.0 | 0.00 | 0.00 | 0.00 | 1006.2 | ||
| 20260505080009 | -17 | 0.0 | 0.0 | 0.00 | 0.00 | 0.00 | 1004.9 | ||
| 20260505074608 | -17 | 0.0 | 0.0 | 0.00 | 0.00 | 0.00 | 1005.1 | ||
| 20260505073052 | -17 | 0.0 | 0.0 | 0.00 | 0.00 | 0.00 | 1004.3 | ||
| 20260505071544 | -17 | 0.0 | 0.0 | 0.00 | 0.00 | 0.00 | 1003.3 | ||
| 20260505070042 | -17 | 0.0 | 0.0 | 0.00 | 0.00 | 0.00 | 1003.2 | ||
| 20260505064538 | -17 | 0.0 | 0.0 | 0.00 | 0.00 | 0.00 | 1002.7 | ||
| 20260505063039 | -17 | 0.0 | 0.0 | 0.00 | 0.00 | 0.00 | 1002.8 | ||
| 20260505061532 | -17 | 0.0 | 0.0 | 0.00 | 0.00 | 0.00 | 1003.6 | ||
| 20260505060024 | -17 | 0.0 | 0.0 | 0.00 | 0.00 | 0.00 | 1002.9 | ||
| 20260505054515 | -17 | 0.0 | 0.0 | 0.00 | 0.00 | 0.00 | 1002.5 | ||
| 20260505053003 | -17 | 0.0 | 0.0 | 0.00 | 0.00 | 0.00 | 1001.9 | ||
| 20260505051600 | -17 | 0.0 | 0.0 | 0.00 | 0.00 | 0.00 | 1002.0 | ||
| 20260505041540 | -17 | 0.0 | 0.0 | 0.00 | 0.00 | 0.00 | 1000.4 | ||
| 20260505040039 | -17 | 0.0 | 0.0 | 0.00 | 0.00 | 0.00 | 1000.7 | ||
| 20260505034532 | -17 | 0.0 | 0.0 | 0.00 | 0.00 | 0.00 | 1000.7 | ||
| 20260505033023 | -17 | 0.0 | 0.0 | 0.00 | 0.00 | 0.00 | 1000.8 | ||
| 20260505031506 | -17 | 0.0 | 0.0 | 0.00 | 0.00 | 0.00 | 1000.9 | ||
| 20260505030051 | -17 | 0.0 | 0.0 | 0.00 | 0.00 | 0.00 | 1000.8 | ||
| 20260505024605 | -17 | 0.0 | 0.0 | 0.00 | 0.00 | 0.00 | 1000.6 | ||
| 20260505023043 | -17 | 0.0 | 0.0 | 0.00 | 0.00 | 0.00 | 1000.5 | ||
| 20260505021549 | -17 | 0.0 | 0.0 | 0.00 | 0.00 | 0.00 | 1000.2 | ||
| 20260505020039 | -17 | 0.0 | 0.0 | 0.00 | 0.00 | 0.00 | 1000.0 | ||
| 20260505014530 | -17 | 0.0 | 0.0 | 0.00 | 0.00 | 0.00 | 999.8 | ||
| 20260505013025 | -17 | 0.0 | 0.0 | 0.00 | 0.00 | 0.00 | 999.7 | ||
| 20260505011526 | -17 | 0.0 | 0.0 | 0.00 | 0.00 | 0.00 | 999.6 | ||
| 20260505004604 | 25 | 22 | 0.0 | 0.0 | 0.00 | 0.00 | 0.00 | 54 | 999.1 |
| 20260505003045 | 26 | 21 | 0.0 | 0.0 | 0.00 | 0.00 | 0.00 | 52 | 999.0 |
| 20260505001545 | 26 | 22 | 0.0 | 0.0 | 0.00 | 0.00 | 0.00 | 50 | 998.8 |
| 20260505000045 | 27 | 18 | 0.0 | 0.0 | 0.00 | 0.00 | 0.00 | 49 | 998.9 |
| 20260504234542 | 27 | 18 | 0.0 | 0.0 | 0.00 | 0.00 | 0.00 | 47 | 998.9 |
| 20260504233054 | 28 | 22 | 0.0 | 0.0 | 0.00 | 0.00 | 0.00 | 45 | 999.0 |
| 20260504231541 | 28 | 22 | 0.0 | 0.0 | 0.00 | 0.00 | 0.00 | 44 | 999.0 |
| 20260504230039 | 28 | 22 | 0.0 | 0.0 | 0.00 | 0.00 | 0.00 | 44 | 999.1 |
| 20260504224538 | 29 | 21 | 0.0 | 0.0 | 0.00 | 0.00 | 0.00 | 42 | 999.0 |
| 20260504223034 | 29 | 22 | 0.0 | 0.0 | 0.00 | 0.00 | 0.00 | 42 | 999.0 |
| 20260504221532 | 29 | 22 | 0.0 | 0.0 | 0.00 | 0.00 | 0.00 | 42 | 999.0 |
| 20260504220024 | 29 | 23 | 0.0 | 0.0 | 0.00 | 0.00 | 0.00 | 41 | 999.0 |
| 20260504214523 | 30 | 22 | 0.0 | 0.0 | 0.00 | 0.00 | 0.00 | 40 | 999.1 |
| 20260504213022 | 30 | 22 | 0.0 | 0.0 | 0.00 | 0.00 | 0.00 | 40 | 999.1 |
| 20260504211521 | 30 | 22 | 0.0 | 0.0 | 0.00 | 0.00 | 0.00 | 40 | 999.2 |
| 20260504210020 | 30 | 22 | 0.0 | 0.0 | 0.00 | 0.00 | 0.00 | 39 | 999.2 |
| 20260504204519 | 30 | 22 | 0.0 | 0.0 | 0.00 | 0.00 | 0.00 | 39 | 999.4 |
| 20260504203059 | 30 | 22 | 0.0 | 0.0 | 0.00 | 0.00 | 0.00 | 38 | 999.4 |
| 20260504201609 | 30 | 22 | 0.0 | 0.0 | 0.00 | 0.00 | 0.00 | 37 | 999.8 |
| 20260504200044 | 30 | 25 | 0.0 | 0.0 | 0.00 | 0.00 | 0.00 | 37 | 999.8 |
| 20260504194543 | 30 | 22 | 0.0 | 0.0 | 0.00 | 0.00 | 0.00 | 37 | 999.9 |
| 20260504193018 | 30 | 24 | 0.0 | 0.0 | 0.00 | 0.00 | 0.00 | 37 | 1000.1 |
| 20260504191518 | 30 | 22 | 0.0 | 0.0 | 0.00 | 0.00 | 0.00 | 37 | 1000.1 |
| 20260504190100 | 30 | 22 | 0.0 | 0.0 | 0.00 | 0.00 | 0.00 | 36 | 1000.2 |
| 20260504184601 | 30 | 22 | 0.0 | 0.0 | 0.00 | 0.00 | 0.00 | 37 | 1000.4 |
| 20260504183039 | 30 | 22 | 0.0 | 0.0 | 0.00 | 0.00 | 0.00 | 37 | 1000.5 |
| 20260504181542 | 29 | 22 | 0.0 | 0.0 | 0.00 | 0.00 | 0.00 | 37 | 1000.7 |
| 20260504180023 | 30 | 22 | 0.0 | 0.0 | 0.00 | 0.00 | 0.00 | 37 | 1000.8 |
| 20260504174522 | 29 | 22 | 0.0 | 0.0 | 0.00 | 0.00 | 0.00 | 38 | 1000.9 |
| 20260504173020 | 28 | 22 | 0.0 | 0.0 | 0.00 | 0.00 | 0.00 | 38 | 1001.0 |
| 20260504171519 | 28 | 22 | 0.0 | 0.0 | 0.00 | 0.00 | 0.00 | 38 | 1001.1 |